Location: Drocourt
(49.0571°N, 1.7669°E)
Time: 13:22:33
(UTC+00:00)

SR - Pass Details

Date: 18 April 2024
Orbit: 579 x 859 km, 66.7° (Epoch: 28 May)

Event Time Altitude Azimuth Distance (km) Brightness Sun altitude
Rises 10:07:13 0° 325° (NW) 3,027 ? 46.2°
Reaches altitude 10° 10:09:39 10° 329° (NNW) 2,066 ? 46.5°
Maximum altitude 10:14:15 63° 51° (NE) 695 ? 46.9°
Drops below altitude 10° 10:18:32 10° 133° (SE) 1,929 ? 47.3°
Sets 10:20:43 0° 136° (SE) 2,807 ? 47.5°
